Flag for Italy Weather past 2 weeks in Cagliari, Italy

Now
77 °F

Clear.


Feels Like: 79 °F
Forecast: 69 / 96 °F
Wind: 6 mph from Northwest

Location: Cagliari / Elmas

Current Time: Jul 7, 2015 at 3:08:50 AM

Latest Report: Jul 7, 2015 at 2:20 AM


Visibility: 10 mi

Pressure: 30.04 "Hg

Humidity: 74%

Dew point: 68 °F

Location of CagliariLocation

Historic Weather in Cagliari — Graph

°F

Cagliari temperature yesterday

Maximum temperature yesterday: 93 °F (at 11:50 AM)
Minimum temperature yesterday: 73 °F (at 4:50 AM)
Average temperature yesterday: 83 °F

Past Weeks' High & Low Weather Summary

 TemperatureHumidityPressure
High93 °F (Jun 28, 2:20 PM)94% (Jun 22, 5:20 AM)30.21 "Hg (Jun 22, 5:20 AM)
Low64 °F (Jun 22, 5:20 AM)22% (Jun 27, 6:20 PM)29.83 "Hg (Jun 23, 5:50 PM)
Average78 °F67%30.07 "Hg
* Reported Jun 22 1:20 AM — Jul 7 1:50 AM, Cagliari, Weather by CustomWeather, © 2015

Note: Actual official high and low records may vary slightly from our data, if they occured in-between our weather recording intervals... More about our weather records

Advertising

Cagliari weather history for previous 24 hours

 ConditionsComfort  
Time TempWeatherWind HumidityBarometerVisibility
1:50 AM
Tue, Jul 7
79 °FClear.6 mph65%30.04 "Hg10 mi
1:20 AM79 °FClear.6 mph65%30.04 "Hg10 mi
12:50 AM79 °FClear.7 mph65%30.07 "Hg10 mi
12:20 AM81 °FClear.7 mph62%30.07 "Hg10 mi
11:50 PM
Mon, Jul 6
81 °FClear.7 mph62%30.07 "Hg10 mi
11:20 PM81 °FClear.5 mph58%30.07 "Hg10 mi
10:50 PM82 °FPassing clouds.3 mph48%30.07 "HgN/A
10:20 PM84 °FClear.6 mph48%30.07 "Hg10 mi
9:50 PM84 °FSunny.5 mph62%30.04 "Hg10 mi
9:20 PM84 °FSunny.5 mph66%30.04 "Hg10 mi
8:50 PM86 °FSunny.6 mph62%30.04 "Hg10 mi
8:20 PM86 °FSunny.7 mph62%30.04 "Hg10 mi
7:50 PM88 °FSunny.6 mph52%30.04 "Hg10 mi
7:20 PM90 °FSunny.7 mph43%30.04 "Hg10 mi
6:50 PM91 °FSunny.8 mph36%30.01 "Hg10 mi
6:20 PM93 °FSunny.12 mph34%30.01 "Hg10 mi
5:50 PM93 °FPassing clouds.10 mph34%30.01 "HgN/A
5:20 PM93 °FPassing clouds.10 mph32%30.04 "HgN/A
4:50 PM93 °FSunny.13 mph36%30.04 "Hg10 mi
3:20 PM93 °FSunny.13 mph41%30.04 "Hg10 mi
2:50 PM91 °FSunny.15 mph44%30.07 "Hg10 mi
2:20 PM91 °FSunny.15 mph44%30.07 "Hg10 mi
1:50 PM91 °FSunny.14 mph44%30.07 "Hg10 mi
1:20 PM90 °FSunny.15 mph46%30.07 "Hg10 mi
12:20 PM91 °FPassing clouds.10 mph46%30.07 "HgN/A
11:50 AM93 °FPassing clouds.7 mph39%30.07 "HgN/A
11:20 AM91 °FPassing clouds.8 mph44%30.07 "HgN/A
10:50 AM90 °FSunny.8 mph46%30.07 "Hg10 mi
10:20 AM88 °FSunny.8 mph52%30.07 "Hg10 mi
9:50 AM86 °FSunny.6 mph55%30.09 "Hg10 mi
9:20 AM84 °FSunny.7 mph62%30.09 "Hg10 mi
8:50 AM81 °FSunny.7 mph70%30.09 "Hg10 mi
8:20 AM79 °FSunny.7 mph79%30.09 "Hg10 mi
7:50 AM75 °FSunny.9 mph83%30.09 "Hg10 mi
7:20 AM75 °FSunny.7 mph78%30.09 "Hg10 mi
6:50 AM73 °FClear.6 mph83%30.07 "Hg10 mi
6:20 AM73 °FClear.7 mph78%30.07 "Hg10 mi
5:50 AM73 °FClear.6 mph83%30.07 "Hg10 mi
5:20 AM73 °FClear.5 mph83%30.07 "Hg10 mi
4:50 AM73 °FClear.3 mph83%30.07 "Hg10 mi
4:20 AM75 °FClear.6 mph83%30.07 "Hg10 mi
3:50 AM75 °FClear.6 mph74%30.07 "Hg10 mi
3:20 AM75 °FClear.7 mph78%30.07 "Hg10 mi
Weather by CustomWeather, © 2015

See weather overviewHow to use our weather pages